Regional Weather Roundup
Issued by NWS

Home | Current Version | Previous Version | Graphics & Text | Print | Product List | Glossary On
Versions: 1 2 3 4 5 6 7 8 9 10 11 12 13 14 15 16 17 18 19 20 21 22 23 24 25 26 27 28 29 30 31 32 33 34 35 36 37 38 39 40 41 42 43 44 45 46 47 48 49 50
000
ASUS45 KCYS 310710
RWRWY

WYOMING REGIONAL WEATHER ROUNDUP
NATIONAL WEATHER SERVICE CHEYENNE WY
100 AM MDT MON AUG 31 2015

NOTE:  "FAIR" INDICATES FEW OR NO CLOUDS BELOW 12,000 FEET
WITH NO SIGNIFICANT WEATHER AND/OR OBSTRUCTIONS TO VISIBILITY.

WYZ001-310800-
YELLOWSTONE NATIONAL PARK

CITY           SKY/WX    TMP DP  RH WIND       PRES   REMARKS
LK YELLOWSTONE   N/A     40  30  67 NW3       30.22R
W YELLOWSTONE  NOT AVBL

$$
WYZ002>013-054>058-071-098>099-310800-
NORTHERN WYOMING

CITY           SKY/WX    TMP DP  RH WIND       PRES   REMARKS
JACKSON        FAIR      52  27  37 E5        30.14R
CODY           FAIR      66  32  28 S5        29.96R
GREYBULL       FAIR      74  32  21 CALM      29.87R
WORLAND        FAIR      65  47  52 CALM      29.88R
SHERIDAN       FAIR      71  36  27 NW8       29.84R
BUFFALO        FAIR      68  49  50 N6        29.91R
GILLETTE       FAIR      74  44  34 W15       29.84R
HULETT         FAIR      77  43  29 SW13      29.85R
NEWCASTLE      FAIR      72  41  33 MISG      29.88F

$$
WYZ014>020-022>026-101>103-310800-
CENTRAL WYOMING

CITY           SKY/WX    TMP DP  RH WIND       PRES   REMARKS
BIG PINEY      FAIR      55  33  43 N9        30.19R
PINEDALE       FAIR      50  37  62 W9        30.19S
DUBOIS         FAIR      52  32  46 W10       30.14R
LANDER         FAIR      70  44  39 SW17G25   30.00R
RIVERTON       FAIR      69  42  37 S12       30.01R
CASPER         FAIR      72  43  35 SW22      29.98R
DOUGLAS        FAIR      75  43  31 W7        29.96S

$$
WYZ021-027>030-104>119-310800-
SOUTHERN WYOMING

CITY           SKY/WX    TMP DP  RH WIND       PRES   REMARKS
EVANSTON       FAIR      57  44  62 N6        30.19R
KEMMERER       FAIR      54  37  54 NW7       30.20R
FORT BRIDGER     N/A     55  48  76 W7        30.20R
ROCK SPRINGS   MOCLDY    57  50  77 SE15      30.16S
DIXON          RAIN      65  46  50 SW14G20   30.22R
RAWLINS        FAIR      65  44  46 SW26G36   30.19R
SARATOGA       FAIR      63  46  55 SE9       30.19R
LARAMIE        MOCLDY    63  44  50 SW13G21   30.17S
CHEYENNE       FAIR      69  45  41 W10       30.06F
TORRINGTON     FAIR      73  48  41 SE3       29.89S
PINE BLUFFS    FAIR      63  45  51 CALM      30.00F

$$


USA.gov is the U.S. government's official web portal to all federal, state and local government web resources and services.